Flag Weather past 2 weeks in Arequipa, Arequipa, Peru

Now
70 °F

Passing clouds.


Feels Like: 70 °F
Forecast: 51 / 71 °F
Wind: 13 mph from West

Location: Arequipa Airport

Current Time: Nov 23, 2014 at 1:58:13 PM

Latest Report: Nov 23, 2014 at 1:00 PM


Visibility: N/A

Pressure: 30.27 "Hg

Humidity: 12%

Dew point: 16 °F

Location of ArequipaLocation

Historic Weather in Arequipa — Graph

°F

Arequipa temperature yesterday

Maximum temperature yesterday: 70 °F (at 11:00 AM)
Minimum temperature yesterday: 48 °F (at 3:00 AM)
Average temperature yesterday: 60 °F

Past Weeks' High & Low Weather Summary

 TemperatureHumidityPressure
High72 °F (Nov 18, 2:00 PM)87% (Nov 22, 3:00 AM)30.39 "Hg (Nov 22, 3:00 AM)
Low45 °F (Nov 13, 3:00 AM)9% (Nov 8, 12:00 PM)30.04 "Hg (Nov 9, 10:00 AM)
Average59 °F41%30.30 "Hg
* Reported Nov 8 12:00 Noon — Nov 23 12:00 Noon, Arequipa, Weather by CustomWeather, © 2014

Note: Actual official high and low records may vary slightly from our data, if they occured in-between our weather recording intervals... More about our weather records

Advertising

Arequipa weather history for previous 24 hours

 ConditionsComfort  
Time TempWeatherWind HumidityBarometerVisibility
12:00 PM
Nov 23
68 °FPassing clouds.13 mph14%30.27 "HgN/A
11:00 AM68 °FPassing clouds.14 mph14%30.27 "HgN/A
10:00 AM70 °FSunny.6 mph12%30.30 "Hg10 mi
9:00 AM66 °FPassing clouds.7 mph14%30.30 "HgN/A
8:00 AM66 °FSunny.3 mph15%30.30 "Hg10 mi
7:00 AM59 °FSunny.6 mph18%30.27 "Hg10 mi
6:00 AM57 °FSunny.7 mph20%30.27 "Hg10 mi
5:00 AM52 °FClear.5 mph24%30.27 "Hg10 mi
4:00 AM54 °FClear.7 mph21%30.27 "Hg10 mi
3:00 AM52 °FClear.5 mph24%30.27 "Hg10 mi
2:00 AM54 °FClear.2 mph26%30.27 "Hg10 mi
1:00 AM54 °FClear.No wind30%30.30 "Hg10 mi
12:00 AM55 °FClear.2 mph31%30.33 "Hg10 mi
11:00 PM
Nov 22
57 °FClear.No wind31%30.36 "Hg10 mi
10:00 PM57 °FClear.3 mph36%30.36 "Hg10 mi
9:00 PM59 °FClear.3 mph27%30.36 "Hg10 mi
8:00 PM59 °FPassing clouds.5 mph31%30.36 "HgN/A
7:00 PM57 °FClear.7 mph36%30.33 "Hg10 mi
6:00 PM59 °FClear.9 mph29%30.30 "Hg10 mi
5:00 PM63 °FPassing clouds.13 mph22%30.30 "HgN/A
4:00 PM68 °FPassing clouds.14 mph17%30.27 "HgN/A
3:00 PM68 °FPassing clouds.14 mph16%30.27 "HgN/A
2:00 PM68 °FPassing clouds.14 mph13%30.30 "HgN/A
1:00 PM68 °FPassing clouds.12 mph12%30.30 "HgN/A
Weather by CustomWeather, © 2014

See weather overviewHow to use our weather pages